RH
80 80 80 80 82 81 82 82 83 83 83 85 86 88 89 90 87 40 9 20 23 60 49 7 8 8 20 12 17 16 16 16 15 16 14 16 20 23 24 29 32 33 29 30 47
80 80 80 80 80 83 84 85 85 85 85 86 88 88 88 90 35 8 35 50 51 54 7 8 10 9 10 10 15 15 14 14 12 13 14 16 17 23 25 28 38 38 36 42 45
80 80 80 79 78 81 83 84 84 84 85 86 87 87 89 72 21 11 56 51 54 31 9 10 10 7 10 11 12 12 12 12 11 12 14 15 18 19 22 27 26 31 41 43 44
80 80 80 79 79 79 82 82 84 85 86 87 87 88 88 30 12 14 54 56 52 13 10 9 9 9 11 12 10 12 12 12 10 12 14 16 16 20 22 23 22 25 33 39 42
81 80 81 80 80 80 80 82 85 85 87 86 86 88 32 8 10 17 55 36 10 9 8 8 8 9 12 10 12 11 10 10 10 11 13 17 19 19 22 25 24 27 33 36 36
80 81 81 81 81 84 85 85 85 86 85 85 86 90 14 6 7 12 9 7 8 8 7 7 8 8 10 10 10 8 8 8 8 10 14 18 19 22 22 27 28 31 34 32 33
80 81 81 81 82 83 85 86 86 86 84 84 82 39 12 5 8 10 9 7 8 8 8 7 6 7 8 10 7 7 9 8 8 10 11 14 19 20 22 28 30 30 34 33 35
80 81 82 84 84 84 86 87 84 84 84 78 76 26 7 7 8 9 8 7 8 8 8 7 6 6 8 8 7 10 9 10 7 7 12 13 12 11 21 26 30 30 31 34 38
80 81 83 85 87 88 89 88 84 77 73 74 34 15 5 16 7 7 8 7 7 7 7 6 6 7 7 10 10 11 11 10 8 6 8 14 12 14 19 23 29 31 32 35 37
81 84 86 88 89 90 90 85 67 64 50 32 22 14 5 6 8 8 9 10 8 7 6 7 7 8 9 10 13 13 11 9 8 7 8 10 12 12 20 21 25 30 33 35 37
82 84 87 88 90 89 53 13 12 14 12 7 7 6 5 7 8 8 8 9 8 7 7 8 7 10 10 10 9 10 11 10 7 7 9 11 12 10 17 21 23 29 34 34 33
82 85 87 89 90 89 44 11 16 16 11 7 8 9 7 8 8 8 8 8 9 7 7 7 6 7 8 8 9 11 11 9 8 9 11 11 12 11 13 20 21 26 31 33 30
84 86 88 89 88 46 16 14 12 14 13 7 7 6 5 7 6 7 7 7 8 8 7 5 6 6 8 8 10 10 10 8 8 9 8 10 12 12 15 20 22 22 26 29 30
85 86 88 92 46 14 14 15 12 14 10 6 5 5 6 6 6 6 6 7 8 7 7 5 5 7 7 7 8 9 7 7 7 8 9 9 10 12 9 11 16 19 21 26 30
84 85 88 91 29 11 16 11 12 13 10 5 5 6 6 6 6 8 6 8 9 8 8 6 6 7 8 6 7 8 6 7 8 8 9 9 9 10 12 14 15 20 23 23 27
86 87 87 49 28 13 12 12 14 12 11 7 6 6 7 6 6 9 8 8 8 9 8 7 8 7 6 9 8 8 10 10 9 7 10 12 10 8 10 16 16 16 28 26 26
89 90 76 34 11 15 13 13 12 11 7 7 7 6 5 6 6 7 10 11 10 14 13 8 8 6 8 9 9 8 9 11 12 10 10 16 13 11 14 16 20 22 23 28 29
90 90 73 32 24 23 16 13 18 8 8 7 7 6 8 5 6 6 9 10 8 9 8 9 9 8 8 9 9 9 8 10 18 12 10 17 14 13 15 17 24 27 24 29 32
92 34 26 22 29 26 16 15 12 10 9 9 7 8 8 7 6 7 8 8 8 9 12 9 8 7 8 8 9 12 12 8 12 12 10 9 12 10 16 19 25 28 33 37 39
33 23 20 24 25 15 15 20 14 10 10 8 9 10 10 9 8 8 8 6 6 7 7 10 12 7 10 9 10 11 8 12 10 18 19 13 14 12 14 17 26 33 39 44 42
36 18 20 17 17 14 14 12 12 9 9 9 10 10 10 11 9 8 8 6 5 6 7 8 12 11 12 12 10 12 12 12 10 14 14 16 13 13 15 21 29 36 38 41 42
25 18 20 18 13 14 14 14 32 8 7 7 8 8 11 10 11 10 8 8 7 5 8 8 10 12 9 10 10 10 12 12 13 25 13 16 12 11 17 26 27 35 39 42 43
24 17 18 18 11 12 16 12 11 9 8 7 7 8 10 11 15 13 13 9 9 7 9 10 12 15 13 10 12 12 11 13 14 20 20 15 14 17 23 26 30 38 39 42 43
29 20 17 18 19 19 20 16 13 11 9 8 8 8 9 10 11 16 13 14 15 10 49 25 12 18 10 12 9 18 15 14 16 16 17 13 14 14 18 24 34 39 39 36 38
26 30 31 21 21 24 26 23 20 16 11 11 11 9 10 14 12 14 13 16 18 37 18 14 20 15 10 8 11 11 12 12 16 13 15 13 13 21 31 32 35 34 36 34 38
28 28 24 27 33 28 36 26 23 20 18 13 14 11 17 16 13 19 17 20 17 20 18 16 21 15 12 8 8 11 12 14 14 16 16 12 16 28 33 35 37 37 34 36 38
33 34 30 43 29 24 23 25 24 23 19 18 18 21 20 18 14 20 20 22 24 28 25 24 19 25 15 11 10 14 12 13 13 13 12 15 26 28 38 38 37 37 35 36 36
Wind_Speed
16 16 16 17 17 16 16 16 17 17 17 18 17 15 15 16 17 7 2 5 5 7 4 9 13 13 15 9 8 5 7 5 5 0 8 10 5 4 4 8 3 4 4 14 17
15 16 16 16 17 17 17 16 17 17 17 18 18 16 15 14 6 3 3 4 3 3 8 13 13 17 10 10 6 9 9 5 4 4 4 6 3 8 6 8 5 7 11 17 17
15 15 16 17 18 18 18 18 17 17 18 18 18 16 15 12 9 6 7 3 2 5 3 4 4 16 12 9 5 4 5 3 5 2 2 6 6 7 3 7 5 11 17 17 16
17 17 17 18 19 19 19 19 18 18 18 18 19 18 17 5 1 4 4 1 3 5 5 5 9 15 9 8 2 6 3 1 5 2 2 6 6 6 5 9 5 13 17 17 15
18 18 18 19 20 20 20 20 19 18 18 17 16 16 10 7 3 4 1 4 5 2 2 2 8 7 8 3 6 5 3 1 2 1 2 4 8 2 6 7 13 16 17 16 15
18 19 19 20 20 20 21 20 20 19 18 17 14 13 7 8 2 2 3 4 2 2 2 2 2 4 1 1 4 3 1 1 2 4 6 8 5 6 8 11 15 18 15 15 14
19 19 19 20 21 21 21 21 21 20 17 13 9 6 7 6 2 4 4 3 2 5 3 4 5 8 1 7 1 3 8 7 5 4 4 8 7 10 12 15 17 17 15 14 13
19 20 21 21 22 22 22 22 22 18 12 7 4 6 7 2 6 5 3 4 2 1 3 3 5 3 5 1 5 6 8 8 9 2 6 11 3 8 15 17 17 17 15 13 14
19 20 21 22 22 22 23 22 18 9 6 3 6 6 3 4 5 1 4 4 2 3 1 2 5 3 5 10 9 9 6 2 3 4 2 10 4 5 13 14 15 16 16 15 14
19 19 20 21 22 22 24 15 1 6 6 6 5 8 5 3 1 1 2 4 3 4 6 6 6 9 9 11 11 10 9 3 4 2 6 10 15 4 9 13 13 15 15 15 15
20 20 20 21 21 20 15 5 7 8 8 9 4 5 1 3 3 6 4 7 6 7 10 3 10 13 15 12 6 1 6 6 1 2 7 8 9 9 9 10 10 14 15 15 16
21 21 22 22 22 19 8 3 6 6 9 8 11 10 9 4 3 7 7 9 8 11 5 7 13 3 3 4 8 10 11 8 3 2 7 1 7 3 4 6 8 12 15 17 16
21 21 21 22 24 9 5 5 7 3 8 5 6 7 4 9 7 9 13 9 8 9 11 13 3 7 8 9 11 13 13 6 6 3 3 3 9 8 6 6 5 8 14 17 17
20 20 20 25 7 4 2 3 6 6 7 10 7 4 7 6 8 8 12 7 6 9 6 10 8 8 9 11 13 14 10 5 6 8 6 2 6 10 3 6 4 4 11 14 16
20 19 17 12 9 4 6 7 1 6 7 5 6 4 3 12 5 10 10 9 8 7 7 6 13 11 10 11 13 1 6 7 6 8 7 10 7 3 5 6 1 4 4 10 13
20 19 17 5 4 5 7 6 6 8 6 5 4 7 9 13 7 6 12 8 4 5 8 2 1 5 5 3 8 9 8 7 6 7 11 1 5 10 3 3 2 6 7 7 10
20 18 8 3 2 7 7 5 7 10 4 7 4 5 8 10 14 9 14 16 10 10 12 12 12 8 7 8 7 13 12 9 9 10 5 5 6 7 4 1 6 6 3 8 8
22 15 7 4 6 7 6 8 9 3 4 3 2 6 7 10 12 12 12 15 16 8 3 10 13 15 12 13 11 16 13 9 5 7 4 5 6 3 2 3 2 2 5 9 8
21 4 3 1 4 5 8 11 6 2 2 3 7 7 7 7 6 14 15 15 13 14 9 9 10 6 4 4 9 9 11 6 5 1 9 5 4 5 2 3 4 7 10 9 7
4 3 4 3 2 6 9 10 1 3 5 3 8 2 5 6 11 10 13 11 14 12 16 3 8 9 9 7 3 7 8 8 8 6 9 7 4 2 5 7 7 8 10 8 6
5 4 4 2 4 6 9 5 3 0 4 4 1 4 2 2 7 11 8 8 14 15 17 10 7 11 7 12 13 8 10 9 6 5 5 5 7 6 1 4 8 8 7 7 5
4 3 3 4 6 3 7 2 0 2 2 3 4 5 3 2 4 7 11 5 2 11 15 14 10 9 15 8 4 7 12 15 10 10 8 8 2 5 3 7 6 8 7 5 4
1 3 4 4 5 7 4 5 3 4 4 3 4 3 2 3 4 5 3 2 3 10 13 11 9 10 12 8 6 9 11 11 9 5 7 10 4 6 6 5 4 8 6 5 3
4 4 4 2 1 2 3 4 7 5 8 7 9 7 8 10 5 5 5 5 4 9 8 6 13 13 10 13 10 10 11 13 16 9 9 12 3 9 5 4 9 7 6 4 3
3 4 6 4 5 1 4 0 4 5 7 5 7 13 13 9 9 10 8 7 6 6 6 8 11 15 16 5 6 10 10 14 15 11 8 9 10 9 5 4 8 8 6 5 3
3 3 3 4 2 5 3 2 3 2 6 8 10 3 7 13 12 9 6 3 3 7 8 8 10 11 18 14 14 10 9 9 9 6 3 3 7 6 5 8 9 8 7 4 3
1 2 6 5 5 6 3 2 2 4 6 10 7 8 10 7 9 9 8 6 4 6 9 8 9 9 15 11 14 16 15 13 11 9 8 8 7 5 6 7 8 8 5 3 3
Wind_Direction
359 357 352 346 339 336 335 333 330 328 325 321 318 321 321 323 304 200 197 61 101 173 207 176 180 194 188 225 234 267 251 108 78 34 91 130 153 108 87 129 82 66 66 107 139
356 351 349 343 335 334 332 330 327 325 323 319 318 321 321 327 262 146 72 85 96 251 212 181 192 174 202 213 192 237 263 46 11 347 329 133 170 144 174 142 131 112 111 126 147
352 348 345 341 334 335 330 328 327 324 321 318 318 319 318 310 257 52 85 111 146 251 244 233 215 192 223 205 178 187 70 128 67 295 270 157 187 166 150 174 149 159 146 152 158
349 347 343 337 333 332 327 325 322 322 317 319 317 319 315 246 249 55 58 60 236 284 260 222 209 214 218 195 145 186 85 358 71 102 217 196 160 192 192 67 114 147 155 160 168
348 342 338 333 331 329 323 320 319 319 315 314 315 320 297 239 94 63 306 205 245 294 325 247 221 230 221 145 160 216 99 158 190 217 219 164 191 178 192 99 133 143 159 169 172
345 342 335 332 329 325 319 320 318 316 312 312 308 311 272 258 48 6 294 269 316 317 77 2 12 322 164 147 260 90 170 145 171 151 187 201 180 203 142 144 144 152 171 177 176
342 337 332 330 327 324 320 318 316 311 308 305 302 288 263 297 338 322 253 310 338 342 338 44 328 265 172 164 129 207 228 175 166 161 179 222 207 220 146 161 157 164 176 180 182
340 335 332 329 326 324 318 314 313 308 307 308 272 261 277 140 313 259 235 231 218 272 300 342 296 284 282 133 194 229 239 234 86 261 120 229 188 176 155 173 172 170 175 184 189
337 333 330 328 324 322 318 311 305 301 284 273 245 260 252 151 221 76 239 263 227 225 111 256 276 307 192 223 204 209 253 270 93 15 331 221 288 59 167 188 182 177 177 188 191
334 332 330 327 323 323 319 297 327 262 212 235 261 250 205 132 42 321 180 253 257 234 212 238 237 232 218 229 234 203 232 189 282 70 254 231 249 154 193 201 190 187 185 187 197
334 333 330 325 322 324 324 240 226 192 209 274 14 310 109 324 218 191 180 193 223 234 232 160 240 219 218 232 318 22 265 272 291 67 285 249 245 245 182 207 197 190 193 198 201
335 333 329 326 322 316 279 348 44 351 296 234 259 271 265 287 249 188 186 206 209 228 194 222 227 187 2 184 217 229 251 236 161 12 249 191 220 157 207 211 222 192 200 208 200
335 332 330 325 318 285 349 64 345 258 254 191 229 257 227 203 228 184 198 206 221 220 218 248 113 147 200 187 218 236 250 195 277 168 199 253 214 193 156 210 209 230 212 210 207
332 332 332 324 291 357 192 42 318 215 259 148 191 179 193 228 228 199 209 205 206 240 211 238 152 206 200 219 223 223 211 223 225 249 240 259 294 178 190 219 212 268 217 216 204
328 328 328 327 321 237 39 337 160 222 263 102 146 80 210 209 97 176 190 203 231 182 220 156 197 197 216 222 207 115 160 210 218 244 281 199 260 190 170 202 83 40 149 191 189
324 323 323 200 227 323 314 313 227 228 230 146 151 189 187 204 187 139 183 223 269 206 228 262 297 228 229 109 223 141 154 166 201 255 242 225 274 268 169 28 288 70 105 162 180
321 313 274 299 12 331 302 217 216 244 115 162 167 193 218 184 209 204 186 192 200 201 211 203 208 189 221 170 180 210 193 223 218 211 253 97 241 297 96 303 320 354 76 145 155
318 309 170 280 303 304 242 217 233 242 198 91 243 240 231 178 218 197 201 204 219 239 261 210 194 205 191 237 191 210 228 266 244 258 228 134 236 147 45 344 20 46 134 116 139
309 180 191 75 289 236 229 213 212 208 342 282 251 252 181 194 259 202 217 216 200 214 242 209 227 170 205 192 227 168 222 321 277 178 271 192 188 224 159 166 110 78 94 98 131
281 219 67 19 166 229 222 234 253 311 328 256 257 301 240 176 200 200 203 226 221 219 233 155 238 192 150 172 127 272 173 194 217 249 257 151 254 260 192 163 114 95 100 111 118
239 211 86 284 257 210 217 197 246 224 301 305 251 252 274 225 251 201 188 205 217 197 215 229 262 150 183 207 200 177 204 241 309 320 304 230 199 108 338 74 109 104 101 102 118
283 198 108 278 196 233 210 173 275 263 219 276 288 290 294 312 237 229 225 254 328 190 195 208 223 246 211 107 344 304 250 218 233 184 238 305 340 101 84 113 110 107 102 93 128
310 88 162 265 211 195 149 200 258 249 243 275 274 265 328 302 298 244 233 67 177 207 211 184 225 216 226 199 192 235 208 242 241 274 192 245 174 116 113 129 118 121 119 121 132
263 172 150 173 348 281 203 218 234 198 252 258 273 282 271 267 230 283 240 168 196 234 26 250 232 236 249 222 200 196 208 211 215 206 184 224 124 165 104 160 140 135 130 149 163
327 63 358 161 157 178 237 246 230 226 219 221 235 243 261 267 248 233 233 203 185 149 216 226 227 224 245 267 243 232 201 193 220 236 230 220 201 76 67 63 127 150 146 179 174
327 305 176 110 151 231 162 115 282 254 244 209 232 241 309 244 258 333 329 250 227 162 197 210 231 223 231 228 244 239 210 195 218 219 259 219 134 62 91 119 135 145 164 167 161
76 150 280 135 181 241 83 42 40 317 233 268 297 278 258 301 305 314 298 290 317 275 200 199 210 211 219 202 225 231 227 208 205 197 223 217 76 121 126 134 139 139 131 114 102